| time (UTC) | temp F | wind direction | speed knots | gust knots | rain 1hr in | rain 24hr in | rain mn in | humidity % | barometer mb |
| 20260901174537 | 69 | 192 | 1.7 | 7.8 | 0.00 | 0.00 | 0.00 | 52 | 1014.8 |
| 20260901173031 | 68 | 192 | 0.0 | 5.2 | 0.00 | 0.00 | 0.00 | 55 | 1014.7 |
| 20260901171530 | 69 | 159 | 0.0 | 5.2 | 0.00 | 0.00 | 0.00 | 53 | 1014.7 |
| 20260901170030 | 69 | 217 | 3.5 | 5.2 | 0.00 | 0.00 | 0.00 | 52 | 1014.6 |
| 20260901164530 | 67 | 165 | 4.3 | 6.1 | 0.00 | 0.00 | 0.00 | 55 | 1014.5 |
| 20260901163026 | 65 | 185 | 0.9 | 2.6 | 0.00 | 0.00 | 0.00 | 58 | 1014.4 |
| 20260901161521 | 66 | 221 | 1.7 | 6.1 | 0.00 | 0.00 | 0.00 | 58 | 1014.7 |
| 20260901160017 | 66 | 228 | 0.0 | 4.3 | 0.00 | 0.00 | 0.00 | 58 | 1014.5 |
| 20260901154523 | 65 | 235 | 1.7 | 6.1 | 0.00 | 0.00 | 0.00 | 59 | 1014.2 |
| 20260901153010 | 64 | 231 | 0.0 | 4.3 | 0.00 | 0.00 | 0.00 | 61 | 1014.3 |
| 20260901151514 | 63 | 171 | 1.7 | 7.8 | 0.00 | 0.00 | 0.00 | 61 | 1014.0 |
| 20260901150012 | 63 | 211 | 1.7 | 5.2 | 0.00 | 0.00 | 0.00 | 63 | 1014.2 |
| 20260901144601 | 62 | 200 | 1.7 | 6.1 | 0.00 | 0.00 | 0.00 | 64 | 1013.8 |
| 20260901143120 | 62 | 203 | 2.6 | 5.2 | 0.00 | 0.00 | 0.00 | 65 | 1013.6 |
| 20260901141607 | 62 | 234 | 0.9 | 6.1 | 0.00 | 0.00 | 0.00 | 65 | 1013.5 |
| 20260901140050 | 62 | 192 | 1.7 | 4.3 | 0.00 | 0.00 | 0.00 | 65 | 1013.2 |
| 20260901134548 | 62 | 234 | 2.6 | 7.0 | 0.00 | 0.00 | 0.00 | 64 | 1013.1 |
| 20260901133102 | 62 | 207 | 1.7 | 6.1 | 0.00 | 0.00 | 0.00 | 66 | 1013.1 |
| 20260901131545 | 62 | 222 | 0.9 | 4.3 | 0.00 | 0.00 | 0.00 | 66 | 1013.1 |
| 20260901130050 | 61 | 215 | 2.6 | 6.1 | 0.00 | 0.00 | 0.00 | 66 | 1012.9 |
| 20260901124544 | 61 | 222 | 0.0 | 3.5 | 0.00 | 0.00 | 0.00 | 66 | 1012.8 |
| 20260901123043 | 61 | 223 | 0.9 | 2.6 | 0.00 | 0.00 | 0.00 | 66 | 1012.9 |
| 20260901121542 | 62 | 307 | 0.0 | 3.5 | 0.00 | 0.00 | 0.00 | 66 | 1012.8 |
| 20260901120048 | 62 | 295 | 0.0 | 2.6 | 0.00 | 0.00 | 0.00 | 67 | 1012.6 |
| 20260901114539 | 62 | 267 | 0.0 | 2.6 | 0.00 | 0.00 | 0.00 | 67 | 1012.8 |
| 20260901113050 | 62 | 281 | 1.7 | 4.3 | 0.00 | 0.00 | 0.00 | 66 | 1013.0 |
| 20260901111539 | 62 | 233 | 0.0 | 5.2 | 0.00 | 0.00 | 0.00 | 66 | 1012.9 |
| 20260901110036 | 62 | 293 | 0.0 | 4.3 | 0.00 | 0.00 | 0.00 | 67 | 1012.9 |
| 20260901104544 | 62 | 281 | 1.7 | 4.3 | 0.00 | 0.00 | 0.00 | 68 | 1012.9 |
| 20260901103033 | 62 | 263 | 0.0 | 3.5 | 0.00 | 0.00 | 0.00 | 68 | 1012.8 |
| 20260901101537 | 62 | 243 | 0.0 | 3.5 | 0.00 | 0.00 | 0.00 | 68 | 1012.6 |
| 20260901100032 | 62 | 237 | 0.9 | 5.2 | 0.00 | 0.00 | 0.00 | 68 | 1012.6 |
| 20260901094535 | 62 | 282 | 0.0 | 2.6 | 0.00 | 0.00 | 0.00 | 68 | 1012.5 |
| 20260901093034 | 62 | 281 | 0.0 | 0.9 | 0.00 | 0.00 | 0.00 | 69 | 1012.5 |
| 20260901091531 | 62 | 265 | 0.0 | 2.6 | 0.00 | 0.00 | 0.00 | 68 | 1012.4 |
| 20260901090031 | 62 | 306 | 1.7 | 3.5 | 0.00 | 0.00 | 0.00 | 68 | 1012.5 |
| 20260901084528 | 62 | 300 | 0.9 | 4.3 | 0.00 | 0.00 | 0.00 | 68 | 1012.4 |
| 20260901083028 | 62 | 290 | 2.6 | 5.2 | 0.00 | 0.00 | 0.00 | 68 | 1012.4 |
| 20260901081527 | 62 | 316 | 1.7 | 4.3 | 0.00 | 0.00 | 0.00 | 69 | 1012.6 |
| 20260901080031 | 62 | 320 | 0.0 | 4.3 | 0.00 | 0.00 | 0.00 | 69 | 1012.5 |
| 20260901074525 | 62 | 328 | 0.9 | 3.5 | 0.00 | 0.00 | 0.00 | 70 | 1012.4 |
| 20260901073024 | 62 | 324 | 1.7 | 4.3 | 0.00 | 0.00 | 0.00 | 69 | 1012.6 |
| 20260901071523 | 62 | 281 | 0.0 | 0.0 | 0.00 | 0.00 | 0.00 | 70 | 1012.6 |
| 20260901070021 | 62 | 281 | 0.0 | 0.0 | 0.00 | 0.00 | 0.00 | 69 | 1012.6 |
| 20260901064523 | 62 | 281 | 0.0 | 2.6 | 0.00 | 0.00 | 0.00 | 69 | 1012.6 |
| 20260901063021 | 62 | 27 | 0.0 | 2.6 | 0.00 | 0.00 | 0.00 | 70 | 1012.6 |
| 20260901061520 | 62 | 297 | 0.0 | 2.6 | 0.00 | 0.00 | 0.00 | 72 | 1012.8 |
| 20260901060022 | 62 | 302 | 1.7 | 6.1 | 0.00 | 0.00 | 0.00 | 70 | 1012.7 |
| 20260901054619 | 62 | 322 | 3.5 | 7.0 | 0.00 | 0.00 | 0.00 | 70 | 1012.7 |
| 20260901053016 | 62 | 327 | 0.9 | 7.0 | 0.00 | 0.00 | 0.00 | 71 | 1012.8 |
| 20260901051517 | 62 | 321 | 1.7 | 5.2 | 0.00 | 0.00 | 0.00 | 72 | 1012.7 |
| 20260901050016 | 61 | 320 | 1.7 | 5.2 | 0.00 | 0.00 | 0.00 | 72 | 1012.4 |
| 20260901044515 | 61 | 17 | 2.6 | 5.2 | 0.00 | 0.00 | 0.00 | 73 | 1012.4 |
| 20260901043020 | 61 | 321 | 3.5 | 7.8 | 0.00 | 0.00 | 0.00 | 72 | 1012.4 |
| 20260901041513 | 62 | 312 | 2.6 | 7.8 | 0.00 | 0.00 | 0.00 | 73 | 1012.2 |
| 20260901040013 | 62 | 319 | 2.6 | 7.8 | 0.00 | 0.00 | 0.00 | 74 | 1012.1 |
| 20260901034512 | 62 | 340 | 2.6 | 7.0 | 0.00 | 0.00 | 0.00 | 73 | 1011.9 |
| 20260901033011 | 63 | 328 | 2.6 | 7.8 | 0.00 | 0.00 | 0.00 | 71 | 1011.8 |
| 20260901031520 | 63 | 300 | 4.3 | 9.6 | 0.00 | 0.00 | 0.00 | 71 | 1011.4 |
| 20260901030110 | 63 | 338 | 1.7 | 11.3 | 0.00 | 0.00 | 0.00 | 70 | 1011.2 |
| 20260901024509 | 64 | 331 | 3.5 | 8.7 | 0.00 | 0.00 | 0.00 | 70 | 1011.3 |
| 20260901023021 | 64 | 323 | 4.3 | 9.6 | 0.00 | 0.00 | 0.00 | 69 | 1011.2 |
| 20260901021515 | 65 | 334 | 3.5 | 8.7 | 0.00 | 0.00 | 0.00 | 69 | 1011.2 |
| 20260901020020 | 65 | 336 | 7.0 | 10.4 | 0.00 | 0.00 | 0.00 | 67 | 1011.0 |
| 20260901014511 | 66 | 336 | 5.2 | 12.2 | 0.00 | 0.00 | 0.00 | 68 | 1010.9 |
| 20260901013018 | 67 | 321 | 4.3 | 10.4 | 0.00 | 0.00 | 0.00 | 66 | 1010.9 |
| 20260901011514 | 67 | 24 | 4.3 | 13.0 | 0.00 | 0.00 | 0.00 | 65 | 1011.0 |
| 20260901010007 | 68 | 9 | 7.8 | 13.0 | 0.00 | 0.00 | 0.00 | 64 | 1011.1 |
| 20260901004504 | 68 | 335 | 7.0 | 12.2 | 0.00 | 0.00 | 0.00 | 63 | 1011.1 |
| 20260901003003 | 69 | 327 | 5.2 | 12.2 | 0.00 | 0.00 | 0.00 | 61 | 1010.9 |
| 20260901001510 | 70 | 5 | 7.0 | 13.0 | 0.00 | 0.00 | 0.00 | 61 | 1010.9 |
| 20260901000002 | 71 | 340 | 7.0 | 16.5 | 0.00 | 0.00 | 0.00 | 61 | 1011.0 |
| 20260831234501 | 70 | 32 | 7.0 | 15.6 | 0.00 | 0.00 | 0.00 | 60 | 1011.1 |
| 20260831233100 | 72 | 355 | 5.2 | 13.0 | 0.00 | 0.00 | 0.00 | 59 | 1011.0 |
| 20260831231600 | 71 | 49 | 5.2 | 12.2 | 0.00 | 0.00 | 0.00 | 60 | 1011.0 |
| 20260831230105 | 73 | 63 | 3.5 | 13.0 | 0.00 | 0.00 | 0.00 | 58 | 1011.2 |
| 20260831224559 | 73 | 20 | 7.8 | 14.8 | 0.00 | 0.00 | 0.00 | 56 | 1011.3 |
| 20260831223057 | 74 | 5 | 6.1 | 13.9 | 0.00 | 0.00 | 0.00 | 56 | 1011.2 |
| 20260831221603 | 73 | 17 | 6.1 | 12.2 | 0.00 | 0.00 | 0.00 | 57 | 1011.3 |
| 20260831220056 | 74 | 330 | 7.8 | 13.9 | 0.00 | 0.00 | 0.00 | 55 | 1011.7 |
| 20260831214559 | 74 | 34 | 7.8 | 13.9 | 0.00 | 0.00 | 0.00 | 56 | 1011.9 |
| 20260831213056 | 74 | 19 | 6.1 | 12.2 | 0.00 | 0.00 | 0.00 | 56 | 1012.0 |
| 20260831211556 | 75 | 345 | 5.2 | 12.2 | 0.00 | 0.00 | 0.00 | 55 | 1012.1 |
| 20260831210056 | 74 | 22 | 4.3 | 10.4 | 0.00 | 0.00 | 0.00 | 55 | 1012.2 |
| 20260831204555 | 74 | 42 | 2.6 | 11.3 | 0.00 | 0.00 | 0.00 | 56 | 1012.2 |
| 20260831203101 | 75 | 335 | 4.3 | 9.6 | 0.00 | 0.00 | 0.00 | 53 | 1012.5 |
| 20260831201548 | 75 | 248 | 2.6 | 10.4 | 0.00 | 0.00 | 0.00 | 53 | 1012.3 |
| 20260831200046 | 75 | 344 | 3.5 | 8.7 | 0.00 | 0.00 | 0.00 | 53 | 1012.4 |
| 20260831194552 | 74 | 315 | 3.5 | 7.8 | 0.00 | 0.00 | 0.00 | 54 | 1012.5 |
| 20260831193046 | 74 | 204 | 2.6 | 6.1 | 0.00 | 0.00 | 0.00 | 54 | 1012.6 |
| 20260831191555 | 72 | 26 | 0.9 | 5.2 | 0.00 | 0.00 | 0.00 | 57 | 1012.8 |
| 20260831190040 | 70 | 313 | 1.7 | 7.8 | 0.00 | 0.00 | 0.00 | 60 | 1012.9 |
| 20260831184538 | 69 | 55 | 0.9 | 4.3 | 0.00 | 0.00 | 0.00 | 63 | 1013.0 |
| 20260831183037 | 69 | 129 | 1.7 | 6.1 | 0.00 | 0.00 | 0.00 | 62 | 1013.1 |
| 20260831181535 | 68 | 306 | 0.9 | 5.2 | 0.00 | 0.00 | 0.00 | 63 | 1013.2 |
| 20260831180034 | 67 | 44 | 3.5 | 6.1 | 0.00 | 0.00 | 0.00 | 65 | 1013.2 |